EW4645 Weather Reports


Display with metric or nautical units.
time (UTC)temp
F
wind
direction
speed
MPH
gust
MPH
rain 1hr
in
rain 24hr
in
rain mn
in
humidity
%
barometer
mb
20190121172845 46 130 2.0 9.0 0.04 0.09 0.09 87 1008.5
20190121171342 46 134 9.0 31.0 0.02 0.08 0.08 87 1009.0
20190121165845 46 129 4.0 18.0 0.03 0.07 0.07 86 1009.4
20190121164343 46 136 7.0 21.0 0.03 0.07 0.07 86 1009.8
20190121162845 46 127 4.0 21.0 0.03 0.06 0.06 86 1010.2
20190121161343 46 133 0.0 16.0 0.06 0.06 0.06 87 1010.8
20190121155845 46 137 0.0 15.0 0.04 0.04 0.04 86 1011.1
20190121154342 46 0 0.0 0.0 0.03 0.03 0.03 87 1011.7
20190121152845 45 0 0.0 0.0 0.02 0.02 0.02 86 1012.3
20190121151343 46 0 0.0 0.0 0.00 0.00 0.00 83 1013.0
20190121145845 46 135 0.0 2.0 0.00 0.00 0.00 83 1013.5
20190121144342 46 0 0.0 0.0 0.00 0.00 0.00 82 1014.1
20190121142845 46 0 0.0 0.0 0.00 0.00 0.00 82 1014.4
20190121141342 46 0 0.0 0.0 0.00 0.00 0.00 78 1014.9
20190121135845 46 0 0.0 0.0 0.00 0.00 0.00 80 1015.3
20190121134342 46 0 0.0 0.0 0.00 0.00 0.00 78 1016.0
20190121132845 46 0 0.0 0.0 0.00 0.00 0.00 78 1016.3
20190121131343 46 0 0.0 0.0 0.00 0.00 0.00 78 1016.9
20190121125845 46 0 0.0 0.0 0.00 0.00 0.00 77 1017.3
20190121124342 46 0 0.0 0.0 0.00 0.00 0.00 76 1017.7
20190121122845 45 0 0.0 0.0 0.00 0.00 0.00 75 1018.3
20190121121343 45 0 0.0 0.0 0.00 0.00 0.00 75 1018.6
20190121115846 45 0 0.0 0.0 0.00 0.00 0.00 75 1018.9
20190121114342 45 0 0.0 0.0 0.00 0.00 0.00 76 1019.3
20190121112845 44 0 0.0 0.0 0.00 0.00 0.00 76 1019.9
20190121111343 44 0 0.0 0.0 0.00 0.00 0.00 80 1020.2
20190121105845 44 0 0.0 0.0 0.00 0.00 0.00 81 1020.3
20190121104343 44 0 0.0 0.0 0.00 0.00 0.00 78 1020.3
20190121102845 43 0 0.0 0.0 0.00 0.00 0.00 79 1020.7
20190121101343 42 0 0.0 0.0 0.00 0.00 0.00 84 1020.9
20190121095845 42 0 0.0 0.0 0.00 0.00 0.00 88 1021.6
20190121094343 40 0 0.0 0.0 0.00 0.00 0.00 89 1022.0
20190121092845 39 0 0.0 0.0 0.00 0.00 0.00 90 1022.2
20190121091343 38 0 0.0 0.0 0.00 0.00 0.00 90 1022.4
20190121085846 38 0 0.0 0.0 0.00 0.00 0.00 91 1022.7
20190121084342 37 0 0.0 0.0 0.00 0.00 0.00 90 1022.9
20190121082845 37 0 0.0 0.0 0.00 0.00 0.00 90 1023.2
20190121081343 37 0 0.0 0.0 0.00 0.00 0.00 90 1023.5
20190121075846 36 115 0.0 2.0 0.00 0.00 0.00 90 1023.6
20190121074344 36 0 0.0 0.0 0.00 0.00 0.00 89 1023.7
20190121072845 36 115 0.0 1.0 0.00 0.00 0.00 89 1023.8
20190121071343 35 0 0.0 0.0 0.00 0.00 0.00 89 1023.9
20190121065846 35 114 0.0 3.0 0.00 0.00 0.00 89 1024.1
20190121064343 35 0 0.0 0.0 0.00 0.00 0.00 88 1024.3
20190121062845 35 0 0.0 0.0 0.00 0.00 0.00 88 1024.3
20190121061344 35 0 0.0 0.0 0.00 0.00 0.00 88 1024.3
20190121055846 35 0 0.0 0.0 0.00 0.00 0.00 87 1024.6
20190121054343 36 0 0.0 0.0 0.00 0.00 0.00 87 1024.8
20190121052846 36 179 0.0 3.0 0.00 0.00 0.00 86 1024.9
20190121051347 36 232 1.0 3.0 0.00 0.00 0.00 87 1024.8
20190121045845 35 234 1.0 4.0 0.00 0.00 0.00 87 1024.9
20190121044343 35 241 1.0 5.0 0.00 0.00 0.00 88 1025.2
20190121042846 35 236 0.0 4.0 0.00 0.00 0.00 88 1025.3
20190121041343 35 0 0.0 0.0 0.00 0.00 0.00 88 1025.4
20190121035846 35 0 0.0 0.0 0.00 0.00 0.00 87 1025.7
20190121034344 35 244 0.0 12.0 0.00 0.00 0.00 87 1025.7
20190121032846 35 0 0.0 0.0 0.00 0.00 0.00 87 1026.0
20190121031344 35 0 0.0 0.0 0.00 0.00 0.00 87 1026.1
20190121025846 35 0 0.0 0.0 0.00 0.00 0.00 87 1026.1
20190121024344 36 0 0.0 0.0 0.00 0.00 0.00 87 1026.2
20190121022846 36 0 0.0 0.0 0.00 0.00 0.00 87 1026.2
20190121021344 36 0 0.0 0.0 0.00 0.00 0.00 87 1026.3
20190121015846 36 0 0.0 0.0 0.00 0.00 0.00 87 1026.3
20190121014344 36 242 3.0 8.0 0.00 0.00 0.00 87 1026.3
20190121012846 36 244 0.0 7.0 0.00 0.00 0.00 87 1026.6
20190121011344 36 257 1.0 2.0 0.00 0.00 0.00 87 1026.7
20190121005846 36 242 1.0 8.0 0.00 0.00 0.00 87 1026.8
20190121004344 36 0 0.0 0.0 0.00 0.00 0.00 87 1027.0
20190121002846 36 230 2.0 8.0 0.00 0.00 0.00 87 1027.3
20190121001344 36 236 4.0 10.0 0.00 0.00 0.00 86 1027.3
20190120235847 37 260 0.0 8.0 0.00 0.00 0.00 86 1027.0
20190120234344 37 266 0.0 4.0 0.00 0.00 0.00 86 1027.2
20190120232846 37 244 3.0 13.0 0.00 0.00 0.00 86 1027.1
20190120231344 38 244 0.0 7.0 0.00 0.00 0.00 85 1027.0
20190120225846 38 0 0.0 0.0 0.00 0.00 0.00 85 1026.9
20190120224344 38 0 0.0 0.0 0.00 0.00 0.00 85 1026.9
20190120222846 38 0 0.0 0.0 0.00 0.00 0.00 85 1026.8
20190120221344 38 0 0.0 0.0 0.00 0.00 0.00 85 1026.6
20190120215846 39 0 0.0 0.0 0.00 0.00 0.00 84 1026.6
20190120214344 39 0 0.0 0.0 0.00 0.00 0.00 85 1026.6
20190120212846 39 0 0.0 0.0 0.00 0.00 0.00 84 1026.5
20190120211344 39 0 0.0 0.0 0.00 0.00 0.00 84 1026.5
20190120205846 39 0 0.0 0.0 0.00 0.00 0.00 83 1026.5
20190120204344 39 0 0.0 0.0 0.00 0.00 0.00 83 1026.3
20190120202846 39 0 0.0 0.0 0.00 0.00 0.00 83 1026.3
20190120201344 39 0 0.0 0.0 0.00 0.00 0.00 83 1026.1
20190120195847 39 0 0.0 0.0 0.00 0.00 0.00 83 1025.9
20190120194344 39 0 0.0 0.0 0.00 0.00 0.00 82 1025.9
20190120192846 39 0 0.0 0.0 0.00 0.00 0.00 83 1025.7
20190120191344 40 0 0.0 0.0 0.00 0.00 0.00 83 1025.6
20190120185846 40 0 0.0 0.0 0.00 0.00 0.00 83 1025.6
20190120184344 40 0 0.0 0.0 0.00 0.00 0.00 83 1025.4
20190120182847 40 0 0.0 0.0 0.00 0.00 0.00 82 1025.3
20190120181345 41 0 0.0 0.0 0.00 0.00 0.00 81 1025.2
20190120175846 42 0 0.0 0.0 0.00 0.00 0.00 80 1025.2
20190120174344 42 0 0.0 0.0 0.00 0.00 0.00 80 1024.9